FW6482 Weather Reports


Display with metric or nautical units.
time (UTC)temp
F
wind
direction
speed
MPH
gust
MPH
rain 1hr
in
rain 24hr
in
rain mn
in
humidity
%
barometer
mb
20260903081550 68 222 3.0 10.0 0.00 0.00 0.00 64 1016.0
20260903080047 67 175 4.0 8.0 0.00 0.00 0.00 65 1016.0
20260903074543 66 213 3.0 9.0 0.00 0.00 0.00 66 1016.0
20260903073046 65 196 3.0 7.0 0.00 0.00 0.00 68 1016.0
20260903070042 65 180 4.0 8.0 0.00 0.00 0.00 67 1016.2
20260903064534 64 201 3.0 6.0 0.00 0.00 0.00 67 1016.3
20260903063032 64 200 3.0 8.0 0.00 0.00 0.00 68 1016.3
20260903061541 63 190 3.0 7.0 0.00 0.00 0.00 68 1016.3
20260903060030 63 194 5.0 9.0 0.00 0.00 0.00 68 1016.2
20260903054522 63 194 3.0 7.0 0.00 0.00 0.00 69 1016.0
20260903053020 62 217 4.0 8.0 0.00 0.00 0.00 69 1016.2
20260903051517 62 195 5.0 8.0 0.00 0.00 0.00 69 1016.2
20260903050015 62 209 5.0 9.0 0.00 0.00 0.00 69 1016.3
20260903044512 62 183 4.0 8.0 0.00 0.00 0.00 70 1016.0
20260903043011 61 196 3.0 7.0 0.00 0.00 0.00 71 1015.9
20260903041509 61 199 3.0 6.0 0.00 0.00 0.00 72 1016.2
20260903040009 61 198 2.0 6.0 0.00 0.00 0.00 73 1016.3
20260903034509 61 198 3.0 6.0 0.00 0.00 0.00 73 1016.6
20260903033004 61 188 3.0 8.0 0.00 0.00 0.00 73 1016.6
20260903031503 61 205 3.0 7.0 0.00 0.00 0.00 73 1016.7
20260903030001 61 204 4.0 7.0 0.00 0.00 0.00 73 1016.8
20260903024600 61 205 4.0 7.0 0.00 0.00 0.00 74 1016.6
20260903023059 60 213 4.0 6.0 0.00 0.00 0.00 74 1016.9
20260903021557 60 210 2.0 4.0 0.00 0.00 0.00 74 1017.0
20260903020056 60 210 2.0 5.0 0.00 0.00 0.00 74 1017.2
20260903014603 60 211 2.0 6.0 0.00 0.00 0.00 75 1017.3
20260903013057 59 215 3.0 6.0 0.00 0.00 0.00 76 1017.1
20260903011606 59 217 3.0 5.0 0.00 0.00 0.00 76 1017.4
20260903010108 59 217 3.0 6.0 0.00 0.00 0.00 76 1017.5
20260903004549 59 218 3.0 5.0 0.00 0.00 0.00 76 1017.5
20260903003051 59 227 3.0 6.0 0.00 0.00 0.00 76 1017.5
20260903001547 59 234 2.0 4.0 0.00 0.00 0.00 77 1017.7
20260903000046 58 234 2.0 5.0 0.00 0.00 0.00 76 1017.8
20260902234543 59 234 2.0 4.0 0.00 0.00 0.00 75 1018.1
20260902233041 59 234 2.0 5.0 0.00 0.00 0.00 74 1018.2
20260902231551 59 235 2.0 7.0 0.00 0.00 0.00 74 1018.1
20260902230038 60 238 2.0 3.0 0.00 0.00 0.00 73 1018.0
20260902224550 60 238 1.0 4.0 0.00 0.00 0.00 71 1018.2
20260902223047 60 238 2.0 5.0 0.00 0.00 0.00 71 1018.2
20260902221543 61 238 3.0 5.0 0.00 0.00 0.00 71 1018.2
20260902220050 61 238 2.0 5.0 0.00 0.00 0.00 71 1018.3
20260902214531 60 239 3.0 5.0 0.00 0.00 0.00 72 1018.3
20260902213030 61 239 1.0 3.0 0.00 0.00 0.00 74 1018.3
20260902211532 61 239 0.0 2.0 0.00 0.00 0.00 74 1018.3
20260902210029 62 239 0.0 1.0 0.00 0.00 0.00 73 1018.2
20260902204529 62 239 0.0 1.0 0.00 0.00 0.00 72 1018.4
20260902203028 63 239 0.0 1.0 0.00 0.00 0.00 71 1018.4
20260902201542 63 239 1.0 2.0 0.00 0.00 0.00 70 1018.3
20260902200027 64 239 0.0 0.0 0.00 0.00 0.00 67 1018.4
20260902194533 64 239 0.0 2.0 0.00 0.00 0.00 66 1018.5
20260902193039 65 239 0.0 0.0 0.00 0.00 0.00 65 1018.4
20260902191527 65 239 0.0 0.0 0.00 0.00 0.00 63 1018.3
20260902190026 66 239 0.0 0.0 0.00 0.00 0.00 62 1018.2
20260902184526 67 239 0.0 0.0 0.00 0.00 0.00 61 1018.2
20260902183028 68 239 0.0 0.0 0.00 0.00 0.00 60 1018.2
20260902181524 69 239 0.0 0.0 0.00 0.00 0.00 59 1018.0
20260902180023 69 239 0.0 0.0 0.00 0.00 0.00 57 1017.7
20260902174525 70 239 0.0 0.0 0.00 0.00 0.00 56 1017.7
20260902173025 71 239 0.0 0.0 0.00 0.00 0.00 56 1017.5
20260902171523 71 239 0.0 0.0 0.00 0.00 0.00 52 1017.6
20260902170023 72 239 0.0 0.0 0.00 0.00 0.00 53 1017.6
20260902164523 72 239 0.0 3.0 0.00 0.00 0.00 50 1017.5
20260902163020 74 239 0.0 3.0 0.00 0.00 0.00 49 1017.6
20260902161520 74 232 0.0 3.0 0.00 0.00 0.00 47 1017.7
20260902160020 74 301 0.0 5.0 0.00 0.00 0.00 47 1017.7
20260902154522 75 304 2.0 10.0 0.00 0.00 0.00 46 1017.7
20260902153040 75 229 0.0 3.0 0.00 0.00 0.00 45 1017.9
20260902151518 75 227 1.0 6.0 0.00 0.00 0.00 45 1017.8
20260902150016 74 226 2.0 4.0 0.00 0.00 0.00 45 1017.9
20260902144516 75 224 1.0 6.0 0.00 0.00 0.00 43 1018.1
20260902143015 75 223 2.0 6.0 0.00 0.00 0.00 45 1018.1
20260902141515 76 228 3.0 10.0 0.00 0.00 0.00 44 1018.1
20260902140014 76 239 4.0 8.0 0.00 0.00 0.00 45 1018.2
20260902134512 76 257 1.0 7.0 0.00 0.00 0.00 45 1018.1
20260902133010 76 316 1.0 3.0 0.00 0.00 0.00 48 1018.3
20260902131525 75 315 1.0 4.0 0.00 0.00 0.00 48 1018.2
20260902130009 76 242 3.0 8.0 0.00 0.00 0.00 47 1018.3
20260902124511 75 254 2.0 7.0 0.00 0.00 0.00 48 1018.3
20260902123007 74 257 2.0 4.0 0.00 0.00 0.00 49 1018.5
20260902121506 74 257 3.0 6.0 0.00 0.00 0.00 49 1018.4
20260902120006 76 250 3.0 11.0 0.00 0.00 0.00 45 1018.3
20260902114511 76 246 4.0 9.0 0.00 0.00 0.00 47 1018.4
20260902113002 74 251 4.0 14.0 0.00 0.00 0.00 47 1018.4
20260902111605 72 355 2.0 9.0 0.00 0.00 0.00 50 1018.4
20260902110058 72 246 10.0 15.0 0.00 0.00 0.00 49 1018.4
20260902104606 72 229 5.0 11.0 0.00 0.00 0.00 51 1018.7
20260902103053 70 238 3.0 10.0 0.00 0.00 0.00 56 1018.6
20260902101552 70 251 7.0 13.0 0.00 0.00 0.00 53 1018.6
20260902100052 71 221 7.0 12.0 0.00 0.00 0.00 51 1018.6
20260902094549 70 267 4.0 14.0 0.00 0.00 0.00 54 1018.7
20260902093050 70 232 3.0 11.0 0.00 0.00 0.00 56 1018.5
20260902091544 70 246 4.0 10.0 0.00 0.00 0.00 58 1018.5
20260902090039 68 244 5.0 11.0 0.00 0.00 0.00 63 1018.5
20260902084535 67 284 4.0 11.0 0.00 0.00 0.00 65 1018.7
20260902083031 65 246 2.0 9.0 0.00 0.00 0.00 73 1018.6